Date,TemperatureHighF,TemperatureAvgF,TemperatureLowF,DewpointHighF,DewpointAvgF,DewpointLowF,HumidityHigh,HumidityAvg,HumidityLow,PressureMaxIn,PressureMinIn,WindSpeedMaxMPH,WindSpeedAvgMPH,GustSpeedMaxMPH,PrecipitationSumIn
2013-5-1,63,50,37,43,36,28,92,64,28,30.53,30.39,15,2,19,0.00
2013-5-2,67,55,44,46,42,35,89,63,38,30.51,30.33,15,2,21,0.00
2013-5-3,71,58,46,51,45,41,89,65,44,30.36,30.19,13,3,17,0.00
2013-5-4,77,64,51,52,46,38,81,56,25,30.20,29.96,19,3,23,0.00
2013-5-5,81,66,51,52,47,41,88,55,26,29.96,29.73,13,2,15,0.00
2013-5-6,84,67,52,54,49,43,89,58,27,29.82,29.71,11,1,15,0.00
2013-5-7,70,60,52,56,52,50,92,77,59,29.96,29.79,16,4,19,0.00
2013-5-8,63,56,52,56,51,49,91,83,70,30.11,29.96,12,2,17,0.00
2013-5-9,70,58,51,56,52,48,95,83,46,30.17,30.07,11,1,12,0.00
2013-5-10,76,60,51,56,52,49,95,77,44,30.16,30.06,6,1,11,0.00
2013-5-11,79,64,56,57,51,45,86,63,42,30.14,29.95,12,2,13,0.00
2013-5-12,69,63,59,58,56,53,94,80,66,30.06,29.99,18,5,22,0.01
2013-5-13,62,57,51,57,51,43,93,81,61,30.15,29.90,22,7,35,0.01
2013-5-14,61,54,48,48,44,40,86,71,47,30.19,30.08,10,3,16,0.00
2013-5-15,62,54,49,52,48,43,94,79,51,30.09,29.99,11,2,17,0.02
2013-5-16,69,60,54,54,52,47,95,77,47,29.99,29.83,9,1,14,0.01
2013-5-17,62,57,54,52,50,45,90,76,58,30.02,29.92,17,6,21,0.00
2013-5-18,60,56,53,50,48,46,88,74,62,30.23,30.03,13,3,19,0.00
2013-5-19,64,57,54,52,50,48,88,77,57,30.36,30.24,10,2,16,0.00
2013-5-20,65,55,48,53,49,46,95,81,62,30.31,29.86,10,2,14,0.00
2013-5-21,56,51,47,50,46,44,95,85,66,29.86,29.74,15,3,20,0.07
2013-5-22,53,49,45,48,46,43,96,89,77,29.90,29.82,13,4,16,0.01
2013-5-23,55,50,46,47,45,42,95,84,68,29.98,29.89,17,2,22,0.01
2013-5-24,61,54,48,51,47,45,95,80,55,30.02,29.94,14,3,19,0.01
2013-5-25,62,56,51,51,48,44,89,76,55,30.01,29.94,11,2,14,0.00
2013-5-26,62,56,51,54,51,49,96,86,70,29.96,29.91,11,1,20,0.01
2013-5-27,59,56,53,56,53,50,95,91,82,29.94,29.68,10,2,16,0.05
2013-5-28,60,56,53,52,50,48,93,81,69,29.85,29.74,21,6,24,0.00
2013-5-29,60,54,50,52,50,48,96,86,67,29.93,29.65,21,3,22,0.01
2013-5-30,60,54,50,49,47,46,88,78,63,30.11,29.93,18,9,27,0.00
2013-5-31,65,60,55,50,46,42,78,60,45,30.31,30.21,14,2,14,0.00